Weather History for KLRU - March, 2013

Change the Weather History Date:

Wednesday, March 13, 2013

  Actual Average Record
Temperature  
Mean Temperature 54 °F -  
Max Temperature 73 °F 65 °F 80 °F (2002)
Min Temperature 35 °F 40 °F 30 °F (2001)
Degree Days  
Heating Degree Days 11    
Growing Degree Days 4 (Base 50)    
Moisture  
Dew Point 17 °F    
Average Humidity 24    
Maximum Humidity 51    
Minimum Humidity 10    
Precipitation  
Precipitation 0.00 in - - ()
Sea Level Pressure  
Sea Level Pressure 30.29 in    
Wind  
Wind Speed 6 mph (SSE)    
Max Wind Speed 10 mph    
Max Gust Speed 16 mph    
Visibility 10 miles    
Events      
Averages and records for this station are not official NWS values.
T = Trace of Precipitation, MM = Missing Value Source: NWS Daily Summary

Daily Weather History Graph

Daily Weather History Graph

Search for Another Location

Airport or City:

Trip Planner

Search our weather history database for the weather conditions in past years. The results will help you decide how hot, cold, wet, or windy it might be!

Date:

Astronomy

Mar. 13, 2013 Rise Set
Actual Time 7:19 AM MDT 7:14 PM MDT
Civil Twilight 6:55 AM MDT 7:38 PM MDT
Nautical Twilight 6:27 AM MDT 8:07 PM MDT
Astronomical Twilight 5:58 AM MDT 8:35 PM MDT
Moon 8:10 AM MDT (3/13) 9:22 PM MDT (3/13)
Length of Visible Light 12h 43m
Length of Day
11h 54m
Waxing Crescent, 4% of the Moon is Illuminated
Mar 13
Waxing Crescent
Mar 19
First Quarter
Mar 27
Full
Apr 2
Last Quarter
Apr 10
New

Hourly Weather History & Observations

Time (MDT) Temp. Windchill Dew Point Humidity Pressure Visibility Wind Dir Wind Speed Gust Speed Precip Events Conditions
12:15 AM 52.2 °F - 21.7 °F 30% 30.27 in 10.0 mi SE 9.2 mph - N/A   Clear
12:35 AM 51.8 °F - 21.9 °F 31% 30.27 in 10.0 mi SSE 8.1 mph - N/A   Clear
12:55 AM 50.9 °F - 21.9 °F 32% 30.28 in 10.0 mi SSE 9.2 mph - N/A   Clear
1:15 AM 50.9 °F - 22.1 °F 32% 30.28 in 10.0 mi SSE 9.2 mph - N/A   Clear
1:35 AM 50.0 °F - 21.9 °F 33% 30.28 in 10.0 mi SSE 9.2 mph - N/A   Clear
1:55 AM 49.8 °F - 22.1 °F 34% 30.28 in 10.0 mi SE 9.2 mph - N/A   Clear
2:15 AM 49.1 °F - 22.1 °F 35% 30.28 in 10.0 mi SE 8.1 mph - N/A   Clear
3:55 AM 46.8 °F - 22.5 °F 38% 30.28 in 10.0 mi SSE 6.9 mph - N/A   Clear
4:15 AM 46.0 °F 41.9 °F 22.6 °F 40% 30.28 in 10.0 mi SSE 8.1 mph - N/A   Clear
4:35 AM 46.0 °F 41.4 °F 22.8 °F 40% 30.28 in 10.0 mi SSE 9.2 mph - N/A   Clear
4:55 AM 45.9 °F 41.7 °F 22.5 °F 40% 30.28 in 10.0 mi SSE 8.1 mph - N/A   Clear
5:15 AM 45.5 °F 40.3 °F 22.1 °F 40% 30.28 in 10.0 mi SE 10.4 mph - N/A   Clear
5:35 AM 44.4 °F 41.2 °F 21.7 °F 41% 30.29 in 10.0 mi SE 5.8 mph - N/A   Clear
5:55 AM 41.7 °F - 21.2 °F 44% 30.30 in 10.0 mi Calm Calm - N/A   Clear
6:15 AM 38.3 °F 34.8 °F 20.3 °F 48% 30.30 in 10.0 mi NW 4.6 mph - N/A   Clear
6:35 AM 36.9 °F - 19.9 °F 50% 30.30 in 10.0 mi Calm Calm - N/A   Clear
6:55 AM 35.8 °F 31.9 °F 19.2 °F 51% 30.31 in 10.0 mi NNW 4.6 mph - N/A   Clear
7:15 AM 36.1 °F 29.9 °F 19.4 °F 51% 30.32 in 10.0 mi NNW 8.1 mph - N/A   Clear
7:35 AM 37.0 °F 31.0 °F 20.1 °F 50% 30.33 in 10.0 mi NNW 8.1 mph - N/A   Clear
7:55 AM 39.9 °F 36.7 °F 20.8 °F 47% 30.33 in 10.0 mi NW 4.6 mph - N/A   Clear
8:15 AM 43.0 °F - 21.7 °F 43% 30.33 in 10.0 mi Calm Calm - N/A   Clear
8:35 AM 46.8 °F - 21.7 °F 37% 30.34 in 10.0 mi Calm Calm - N/A   Clear
8:55 AM 50.2 °F - 22.8 °F 34% 30.35 in 10.0 mi Calm Calm - N/A   Clear
9:15 AM 50.7 °F - 22.3 °F 33% 30.36 in 10.0 mi Calm Calm - N/A   Clear
9:35 AM 54.5 °F - 22.6 °F 29% 30.36 in 10.0 mi Calm Calm - N/A   Clear
9:55 AM 57.0 °F - 22.1 °F 26% 30.36 in 10.0 mi ESE 3.5 mph - N/A   Clear
10:15 AM 58.3 °F - 22.1 °F 25% 30.36 in 10.0 mi East 5.8 mph - N/A   Clear
10:35 AM 59.0 °F - 22.1 °F 24% 30.36 in 10.0 mi ESE 6.9 mph - N/A   Clear
10:55 AM 59.5 °F - 22.3 °F 24% 30.36 in 10.0 mi SE 5.8 mph - N/A   Clear
11:15 AM 61.2 °F - 22.3 °F 22% 30.36 in 10.0 mi SE 8.1 mph - N/A   Clear
11:35 AM 62.8 °F - 22.5 °F 21% 30.36 in 10.0 mi SE 9.2 mph - N/A   Clear
11:55 AM 64.6 °F - 21.9 °F 20% 30.36 in 10.0 mi SE 9.2 mph - N/A   Clear
12:15 PM 64.9 °F - 21.6 °F 19% 30.36 in 10.0 mi ESE 4.6 mph - N/A   Clear
12:35 PM 65.3 °F - 21.2 °F 19% 30.34 in 10.0 mi SSE 9.2 mph - N/A   Clear
12:55 PM 67.6 °F - 20.8 °F 17% 30.33 in 10.0 mi SE 10.4 mph 16.1 mph N/A   Clear
1:15 PM 68.0 °F - 20.8 °F 17% 30.32 in 10.0 mi SE 10.4 mph - N/A   Clear
1:35 PM 68.0 °F - 20.1 °F 16% 30.31 in 10.0 mi South 6.9 mph - N/A   Clear
1:55 PM 69.8 °F - 19.8 °F 15% 30.30 in 10.0 mi South 4.6 mph - N/A   Clear
2:15 PM 70.3 °F - 18.5 °F 14% 30.29 in 10.0 mi SE 8.1 mph - N/A   Clear
2:35 PM 71.2 °F - 18.5 °F 14% 30.28 in 10.0 mi SE 4.6 mph - N/A   Clear
2:55 PM 71.6 °F - 17.2 °F 13% 30.27 in 10.0 mi South 6.9 mph - N/A   Clear
3:15 PM 72.3 °F - 17.4 °F 12% 30.27 in 10.0 mi SSE 9.2 mph - N/A   Clear
3:35 PM 72.9 °F - 17.1 °F 12% 30.26 in 10.0 mi SE 9.2 mph - N/A   Clear
3:55 PM 71.6 °F - 15.3 °F 12% 30.25 in 10.0 mi South 4.6 mph - N/A   Clear
4:15 PM 73.8 °F - 14.9 °F 11% 30.25 in 10.0 mi South 6.9 mph - N/A   Clear
4:35 PM 73.6 °F - 16.3 °F 11% 30.24 in 10.0 mi Calm Calm - N/A   Clear
4:55 PM 73.2 °F - 15.6 °F 11% 30.23 in 10.0 mi ESE 9.2 mph - N/A   Clear
5:15 PM 73.0 °F - 16.0 °F 11% 30.23 in 10.0 mi SE 3.5 mph - N/A   Clear
5:35 PM 73.4 °F - 12.7 °F 10% 30.23 in 10.0 mi South 8.1 mph - N/A   Clear
5:55 PM 72.5 °F - 13.1 °F 10% 30.23 in 10.0 mi South 4.6 mph - N/A   Clear
6:15 PM 72.3 °F - 12.9 °F 10% 30.23 in 10.0 mi SSE 4.6 mph - N/A   Clear
6:35 PM 71.6 °F - 12.9 °F 11% 30.23 in 10.0 mi SSE 5.8 mph - N/A   Clear
6:55 PM 69.8 °F - 12.2 °F 11% 30.23 in 10.0 mi SSE 4.6 mph - N/A   Clear
7:15 PM 67.1 °F - 11.3 °F 11% 30.23 in 10.0 mi South 5.8 mph - N/A   Clear
7:35 PM 64.4 °F - 10.4 °F 12% 30.23 in 10.0 mi South 4.6 mph - N/A   Clear
7:55 PM 62.6 °F - 9.5 °F 12% 30.24 in 10.0 mi South 4.6 mph - N/A   Clear
8:15 PM 62.4 °F - 9.1 °F 12% 30.24 in 10.0 mi SSE 5.8 mph - N/A   Clear
8:35 PM 60.3 °F - 8.6 °F 13% 30.24 in 10.0 mi South 4.6 mph - N/A   Clear
8:55 PM 59.2 °F - 8.4 °F 13% 30.24 in 10.0 mi South 6.9 mph - N/A   Clear
9:15 PM 58.3 °F - 8.4 °F 14% 30.24 in 10.0 mi South 5.8 mph - N/A   Clear
9:35 PM 53.8 °F - 5.4 °F 14% 30.25 in 10.0 mi South 3.5 mph - N/A   Clear
9:55 PM 53.8 °F - 7.0 °F 15% 30.25 in 10.0 mi Calm Calm - N/A   Clear
10:15 PM 51.3 °F - 5.2 °F 15% 30.25 in 10.0 mi Calm Calm - N/A   Clear
10:35 PM 52.9 °F - 7.0 °F 16% 30.26 in 10.0 mi SE 3.5 mph - N/A   Clear
10:55 PM 46.8 °F - 3.6 °F 17% 30.27 in 10.0 mi Calm Calm - N/A   Clear
11:15 PM 46.4 °F - 2.8 °F 17% 30.27 in 10.0 mi Calm Calm - N/A   Clear
11:35 PM 45.7 °F - 3.4 °F 18% 30.27 in 10.0 mi Calm Calm - N/A   Clear
11:55 PM 45.3 °F - 4.1 °F 18% 30.27 in 10.0 mi Calm Calm - N/A   Clear